FW3065 Weather Reports


Display with metric or nautical units.
time (UTC)temp
F
wind
direction
speed
MPH
gust
MPH
rain 1hr
in
rain 24hr
in
rain mn
in
humidity
%
barometer
mb
20210122023034 28 223 0.0 0.0 0.00 0.00 0.00 64 1003.0
20210122020044 28 223 0.0 0.0 0.00 0.00 0.00 63 1003.2
20210122014536 28 223 0.0 2.0 0.00 0.00 0.00 62 1003.2
20210122013113 28 222 0.0 0.0 0.00 0.00 0.00 62 1003.2
20210122011619 28 223 0.0 0.0 0.00 0.00 0.00 62 1003.3
20210122010421 28 223 0.0 1.0 0.00 0.00 0.00 61 1003.5
20210122010025 28 223 0.0 1.0 0.00 0.00 0.00 61 1003.5
20210122004616 29 245 0.0 2.0 0.00 0.00 0.00 60 1003.7
20210122003034 29 238 0.0 0.0 0.00 0.00 0.00 59 1003.8
20210122001801 29 239 0.0 3.0 0.00 0.00 0.00 59 1003.9
20210122000116 28 223 1.0 4.0 0.00 0.00 0.00 59 1003.9
20210121234656 28 252 0.0 2.0 0.00 0.00 0.00 59 1004.0
20210121233059 28 238 0.0 2.0 0.00 0.00 0.00 59 1004.0
20210121231527 28 221 1.0 5.0 0.00 0.00 0.00 58 1003.8
20210121230153 28 224 1.0 5.0 0.00 0.00 0.00 58 1003.8
20210121224522 28 217 1.0 5.0 0.00 0.00 0.00 58 1003.9
20210121223230 28 215 2.0 4.0 0.00 0.00 0.00 59 1003.8
20210121223018 28 209 2.0 5.0 0.00 0.00 0.00 59 1003.9
20210121221625 28 218 0.0 5.0 0.00 0.00 0.00 59 1003.8
20210121220111 28 209 2.0 7.0 0.00 0.00 0.00 59 1003.9
20210121214610 28 232 1.0 6.0 0.00 0.00 0.00 59 1004.0
20210121213110 28 199 4.0 7.0 0.00 0.00 0.00 59 1004.0
20210121211617 27 196 0.0 9.0 0.00 0.00 0.00 59 1004.0
20210121210049 27 188 5.0 9.0 0.00 0.00 0.00 59 1003.8
20210121204541 27 191 4.0 11.0 0.00 0.00 0.00 60 1003.8
20210121203149 27 219 3.0 8.0 0.00 0.00 0.00 60 1003.9
20210121201538 26 186 2.0 7.0 0.00 0.00 0.00 60 1003.9
20210121200112 26 214 2.0 6.0 0.00 0.00 0.00 60 1004.0
20210121194547 26 212 2.0 8.0 0.00 0.00 0.00 60 1004.0
20210121193034 26 238 3.0 7.0 0.00 0.00 0.00 61 1004.2
20210121191647 26 213 2.0 8.0 0.00 0.00 0.00 61 1004.3
20210121190146 25 215 2.0 10.0 0.00 0.00 0.00 61 1004.5
20210121184729 25 197 1.0 7.0 0.00 0.00 0.00 62 1004.5
20210121183050 25 188 4.0 10.0 0.00 0.00 0.00 62 1004.7
20210121181522 24 213 4.0 10.0 0.00 0.00 0.00 63 1004.9
20210121180058 24 220 2.0 6.0 0.00 0.00 0.00 63 1005.1
20210121174549 24 220 5.0 11.0 0.00 0.00 0.00 64 1005.2
20210121173022 23 182 5.0 11.0 0.00 0.00 0.00 65 1005.4
20210121171606 23 173 7.0 11.0 0.00 0.00 0.00 66 1005.8
20210121170035 22 194 1.0 11.0 0.00 0.00 0.00 66 1006.3
20210121164518 22 195 5.0 12.0 0.00 0.00 0.00 66 1006.4
20210121163118 22 209 4.0 11.0 0.00 0.00 0.00 67 1006.6
20210121161526 22 201 5.0 10.0 0.00 0.00 0.00 67 1007.0
20210121160214 21 204 3.0 9.0 0.00 0.00 0.00 68 1007.3
20210121154528 21 190 5.0 10.0 0.00 0.00 0.00 68 1007.9
20210121153147 21 173 4.0 14.0 0.00 0.00 0.00 67 1008.1
20210121151540 21 192 10.0 14.0 0.00 0.00 0.00 66 1008.2
20210121150034 20 189 12.0 19.0 0.00 0.00 0.00 65 1008.2
20210121144728 21 157 13.0 21.0 0.00 0.00 0.00 63 1008.1
20210121143118 21 189 10.0 19.0 0.00 0.00 0.00 56 1008.8
20210121141636 20 209 7.0 14.0 0.00 0.00 0.00 56 1009.0
20210121140045 19 208 7.0 11.0 0.00 0.00 0.00 57 1008.7
20210121134642 18 186 3.0 10.0 0.00 0.00 0.00 61 1009.0
20210121133050 16 232 2.0 10.0 0.00 0.00 0.00 62 1009.0
20210121131606 16 199 6.0 9.0 0.00 0.00 0.00 62 1009.1
20210121130124 16 238 3.0 6.0 0.00 0.00 0.00 63 1008.9
20210121124523 15 221 1.0 6.0 0.00 0.00 0.00 63 1009.0
20210121123130 14 211 2.0 6.0 0.00 0.00 0.00 64 1009.5
20210121121553 14 201 4.0 6.0 0.00 0.00 0.00 64 1010.1
20210121120027 13 186 1.0 4.0 0.00 0.00 0.00 64 1010.7
20210121114645 13 216 0.0 1.0 0.00 0.00 0.00 64 1011.2
20210121113213 13 216 0.0 3.0 0.00 0.00 0.00 64 1011.4
20210121111551 13 219 0.0 3.0 0.00 0.00 0.00 64 1011.6
20210121110023 13 220 1.0 4.0 0.00 0.00 0.00 64 1011.8
20210121104636 13 226 0.0 3.0 0.00 0.00 0.00 65 1011.9
20210121103127 13 217 2.0 4.0 0.00 0.00 0.00 66 1012.2
20210121101523 13 257 0.0 2.0 0.00 0.00 0.00 67 1012.3
20210121100059 13 249 1.0 2.0 0.00 0.00 0.00 67 1012.8
20210121094547 13 258 0.0 0.0 0.00 0.00 0.00 67 1013.5
20210121093212 13 192 0.0 1.0 0.00 0.00 0.00 67 1013.3
20210121091653 13 192 0.0 2.0 0.00 0.00 0.00 68 1013.9
20210121090041 12 198 0.0 1.0 0.00 0.00 0.00 67 1014.3
20210121084554 12 199 0.0 0.0 0.00 0.00 0.00 67 1014.5
20210121083049 12 199 0.0 2.0 0.00 0.00 0.00 67 1014.9
20210121081623 12 143 0.0 2.0 0.00 0.00 0.00 67 1015.1
20210121080039 11 203 0.0 2.0 0.00 0.00 0.00 67 1015.7
20210121074525 11 233 0.0 0.0 0.00 0.00 0.00 66 1015.9
20210121073040 11 233 0.0 1.0 0.00 0.00 0.00 66 1015.8
20210121071645 12 234 0.0 1.0 0.00 0.00 0.00 66 1015.9
20210121070042 12 234 0.0 2.0 0.00 0.00 0.00 66 1016.5
20210121064644 12 234 0.0 1.0 0.00 0.00 0.00 66 1016.5
20210121063039 12 234 0.0 1.0 0.00 0.00 0.00 66 1016.9
20210121061531 13 234 0.0 1.0 0.00 0.00 0.00 65 1017.0
20210121060115 13 234 0.0 1.0 0.00 0.00 0.00 65 1017.1
20210121054554 13 234 0.0 2.0 0.00 0.00 0.00 65 1017.6
20210121053154 13 269 0.0 2.0 0.00 0.00 0.00 65 1017.6
20210121053018 13 269 0.0 2.0 0.00 0.00 0.00 65 1017.7
20210121051614 13 269 0.0 2.0 0.00 0.00 0.00 64 1017.6
20210121050045 13 278 0.0 0.0 0.00 0.00 0.00 63 1017.5
20210121044632 13 277 0.0 2.0 0.00 0.00 0.00 62 1017.4
20210121044517 13 277 0.0 2.0 0.00 0.00 0.00 62 1017.3
20210121043112 14 262 0.0 1.0 0.00 0.00 0.00 60 1017.3
20210121041529 14 262 0.0 1.0 0.00 0.00 0.00 59 1017.4
20210121040142 15 264 0.0 0.0 0.00 0.00 0.00 58 1017.3
20210121034551 15 264 0.0 0.0 0.00 0.00 0.00 57 1017.2
20210121033057 16 264 0.0 3.0 0.00 0.00 0.00 56 1017.2
20210121031926 17 281 0.0 0.0 0.00 0.00 0.00 55 1017.2
20210121030046 17 281 0.0 0.0 0.00 0.00 0.00 54 1017.1
20210121024513 18 279 0.0 2.0 0.00 0.00 0.00 53 1017.0